QPF
0.01 0.01 0.02 0.02 0.03 0.03 0.03 0.04 0.05 0.06 0.07 0.08 0.07 0.06 0.04 0.04 0.04 0.03 0.02 0.02 0.01 0.01 0.01 0.02 0.02 0.03 0.03 0.03 0.02 0.02 0.02 0.02 0.02 0.03 0.03 0.03 0.03 0.02 0.02 0.02 0.01 0.01 0.01
0.01 0.01 0.01 0.02 0.02 0.02 0.02 0.02 0.04 0.06 0.07 0.08 0.08 0.07 0.06 0.05 0.04 0.04 0.04 0.03 0.02 0.02 0.01 0.01 0.01 0.02 0.02 0.02 0.03 0.02 0.02 0.02 0.03 0.03 0.03 0.03 0.02 0.02 0.01 0.02 0.02 0.01 0.01
0.01 0.01 0.01 0.01 0.02 0.02 0.01 0.01 0.02 0.04 0.05 0.06 0.08 0.09 0.09 0.06 0.05 0.04 0.04 0.03 0.03 0.03 0.02 0.02 0.03 0.03 0.02 0.02 0.03 0.03 0.02 0.02 0.03 0.03 0.03 0.03 0.02 0.02 0.01 0.01 0.02 0.02 0.01
0.00 0.00 0.00 0.01 0.01 0.01 0.01 0.01 0.01 0.02 0.03 0.04 0.06 0.06 0.08 0.10 0.08 0.06 0.05 0.06 0.06 0.06 0.05 0.04 0.04 0.05 0.05 0.04 0.04 0.04 0.03 0.03 0.03 0.03 0.03 0.03 0.02 0.02 0.02 0.01 0.02 0.02 0.02
0.00 0.00 0.00 0.00 0.00 0.00 0.01 0.01 0.01 0.01 0.01 0.03 0.04 0.04 0.05 0.07 0.10 0.10 0.08 0.06 0.06 0.07 0.08 0.09 0.08 0.07 0.07 0.08 0.07 0.08 0.08 0.07 0.06 0.05 0.04 0.04 0.03 0.02 0.02 0.02 0.01 0.02 0.03
0.00 0.00 0.00 0.00 0.00 0.00 0.00 0.00 0.00 0.00 0.01 0.01 0.02 0.03 0.03 0.04 0.06 0.07 0.09 0.07 0.05 0.05 0.05 0.05 0.06 0.07 0.08 0.10 0.11 0.11 0.13 0.13 0.11 0.08 0.06 0.04 0.03 0.03 0.02 0.02 0.01 0.01 0.02
0.00 0.00 0.00 0.00 0.00 0.00 0.00 0.00 0.00 0.00 0.00 0.01 0.01 0.02 0.02 0.03 0.03 0.05 0.06 0.07 0.07 0.05 0.04 0.04 0.04 0.03 0.04 0.05 0.07 0.07 0.07 0.07 0.06 0.05 0.04 0.03 0.02 0.02 0.02 0.03 0.02 0.01 0.01
0.00 0.00 0.00 0.00 0.00 0.00 0.00 0.00 0.00 0.00 0.00 0.00 0.01 0.01 0.01 0.02 0.02 0.03 0.03 0.04 0.06 0.05 0.04 0.04 0.04 0.03 0.04 0.05 0.05 0.06 0.05 0.05 0.05 0.05 0.04 0.03 0.03 0.02 0.02 0.02 0.02 0.02 0.01
0.00 0.00 0.00 0.00 0.00 0.00 0.00 0.01 0.01 0.01 0.00 0.00 0.01 0.01 0.01 0.01 0.01 0.02 0.02 0.02 0.03 0.05 0.06 0.05 0.04 0.03 0.02 0.02 0.03 0.03 0.04 0.04 0.04 0.05 0.05 0.05 0.04 0.04 0.03 0.02 0.02 0.03 0.02
0.00 0.00 0.00 0.00 0.00 0.00 0.01 0.01 0.01 0.01 0.01 0.01 0.01 0.01 0.01 0.01 0.01 0.01 0.02 0.02 0.02 0.03 0.06 0.07 0.05 0.03 0.02 0.02 0.02 0.02 0.02 0.03 0.03 0.03 0.03 0.04 0.04 0.04 0.03 0.03 0.02 0.02 0.03
0.00 0.00 0.00 0.00 0.00 0.00 0.00 0.00 0.00 0.00 0.01 0.01 0.01 0.01 0.01 0.01 0.01 0.01 0.01 0.01 0.02 0.03 0.03 0.04 0.06 0.05 0.03 0.02 0.02 0.02 0.02 0.02 0.03 0.04 0.04 0.04 0.03 0.04 0.04 0.04 0.03 0.03 0.04
0.00 0.00 0.00 0.00 0.00 0.00 0.00 0.00 0.00 0.00 0.01 0.01 0.01 0.01 0.01 0.01 0.01 0.01 0.01 0.01 0.01 0.02 0.03 0.04 0.04 0.07 0.07 0.05 0.04 0.03 0.03 0.03 0.03 0.03 0.04 0.05 0.04 0.04 0.04 0.05 0.05 0.04 0.05
0.00 0.00 0.00 0.00 0.00 0.00 0.00 0.00 0.00 0.00 0.00 0.00 0.00 0.00 0.01 0.01 0.01 0.01 0.01 0.01 0.01 0.01 0.01 0.02 0.04 0.05 0.06 0.06 0.05 0.05 0.05 0.05 0.05 0.04 0.04 0.05 0.05 0.05 0.05 0.05 0.06 0.05 0.05
0.00 0.00 0.01 0.01 0.00 0.00 0.00 0.00 0.00 0.00 0.00 0.00 0.00 0.00 0.01 0.01 0.01 0.01 0.01 0.01 0.01 0.01 0.01 0.01 0.01 0.02 0.03 0.04 0.06 0.07 0.07 0.07 0.07 0.07 0.06 0.06 0.07 0.08 0.07 0.07 0.06 0.06 0.07
0.00 0.01 0.01 0.00 0.00 0.00 0.00 0.00 0.00 0.00 0.00 0.00 0.00 0.00 0.00 0.01 0.01 0.01 0.00 0.00 0.01 0.01 0.01 0.01 0.01 0.01 0.02 0.02 0.03 0.04 0.06 0.07 0.07 0.08 0.09 0.08 0.09 0.10 0.10 0.09 0.07 0.06 0.06
0.01 0.00 0.00 0.00 0.00 0.00 0.00 0.00 0.00 0.00 0.01 0.01 0.01 0.01 0.01 0.01 0.01 0.01 0.01 0.01 0.01 0.01 0.01 0.02 0.02 0.02 0.02 0.02 0.03 0.03 0.03 0.04 0.05 0.06 0.07 0.07 0.07 0.07 0.06 0.06 0.07 0.07 0.07
0.00 0.00 0.00 0.00 0.00 0.00 0.00 0.00 0.00 0.00 0.00 0.01 0.01 0.01 0.01 0.01 0.01 0.01 0.01 0.01 0.01 0.01 0.02 0.02 0.02 0.03 0.03 0.03 0.03 0.03 0.02 0.02 0.03 0.03 0.03 0.04 0.05 0.05 0.05 0.05 0.05 0.06 0.07
0.00 0.00 0.00 0.00 0.00 0.00 0.00 0.00 0.00 0.00 0.00 0.00 0.00 0.00 0.00 0.01 0.01 0.01 0.01 0.01 0.01 0.01 0.01 0.01 0.02 0.02 0.03 0.03 0.03 0.03 0.03 0.02 0.02 0.02 0.02 0.03 0.03 0.03 0.04 0.04 0.04 0.04 0.04
0.00 0.00 0.00 0.00 0.00 0.00 0.00 0.00 0.00 0.00 0.00 0.00 0.00 0.00 0.00 0.00 0.01 0.01 0.01 0.01 0.01 0.01 0.01 0.01 0.01 0.01 0.02 0.03 0.03 0.02 0.02 0.02 0.01 0.01 0.01 0.02 0.02 0.03 0.03 0.03 0.03 0.03 0.03
0.00 0.00 0.00 0.00 0.00 0.00 0.00 0.00 0.00 0.00 0.00 0.00 0.00 0.00 0.00 0.00 0.00 0.01 0.01 0.01 0.01 0.01 0.01 0.01 0.01 0.01 0.01 0.01 0.02 0.02 0.02 0.02 0.01 0.01 0.01 0.01 0.01 0.02 0.02 0.02 0.02 0.02 0.02
0.00 0.00 0.00 0.00 0.00 0.00 0.00 0.00 0.00 0.00 0.00 0.00 0.00 0.00 0.00 0.00 0.00 0.00 0.01 0.01 0.01 0.01 0.01 0.01 0.01 0.01 0.00 0.01 0.01 0.01 0.02 0.02 0.01 0.01 0.01 0.00 0.01 0.01 0.02 0.02 0.02 0.02 0.01
0.00 0.00 0.00 0.00 0.00 0.00 0.00 0.00 0.00 0.00 0.00 0.00 0.00 0.00 0.00 0.00 0.00 0.00 0.00 0.00 0.00 0.01 0.00 0.00 0.00 0.01 0.01 0.01 0.01 0.01 0.01 0.02 0.02 0.01 0.01 0.01 0.01 0.01 0.01 0.01 0.01 0.01 0.01
0.00 0.00 0.00 0.00 0.00 0.00 0.00 0.00 0.00 0.00 0.00 0.00 0.00 0.00 0.00 0.00 0.00 0.00 0.00 0.00 0.01 0.01 0.01 0.00 0.00 0.01 0.01 0.01 0.01 0.01 0.01 0.01 0.01 0.01 0.01 0.01 0.01 0.01 0.01 0.01 0.01 0.01 0.01
0.00 0.00 0.00 0.00 0.00 0.00 0.00 0.00 0.00 0.00 0.00 0.00 0.00 0.00 0.00 0.00 0.00 0.00 0.01 0.01 0.01 0.01 0.01 0.01 0.01 0.01 0.01 0.01 0.01 0.01 0.00 0.00 0.01 0.01 0.01 0.01 0.01 0.01 0.01 0.01 0.01 0.01 0.01
0.01 0.01 0.01 0.01 0.01 0.00 0.00 0.00 0.00 0.00 0.00 0.00 0.00 0.00 0.00 0.00 0.00 0.00 0.01 0.01 0.01 0.01 0.02 0.02 0.02 0.02 0.02 0.01 0.01 0.01 0.01 0.01 0.01 0.01 0.01 0.01 0.01 0.01 0.01 0.01 0.01 0.01 0.01
0.01 0.02 0.02 0.01 0.01 0.01 0.01 0.00 0.00 0.00 0.00 0.00 0.01 0.01 0.01 0.01 0.00 0.00 0.00 0.00 0.00 0.01 0.01 0.01 0.02 0.02 0.02 0.02 0.02 0.02 0.02 0.02 0.02 0.02 0.03 0.02 0.02 0.02 0.01 0.01 0.01 0.01 0.02
MSLP
1018.45 1017.68 1016.92 1016.16 1015.45 1014.80 1014.26 1013.86 1013.61 1013.50 1013.53 1013.67 1013.86 1014.08 1014.30 1014.49 1014.64 1014.75 1014.83 1014.89 1014.93 1014.95 1014.93 1014.89 1014.79 1014.64 1014.44 1014.21 1013.98 1013.77 1013.62 1013.56 1013.61 1013.76 1013.99 1014.29 1014.61 1014.92 1015.19 1015.39 1015.53 1015.62 1015.68
1018.68 1017.92 1017.13 1016.34 1015.56 1014.83 1014.21 1013.74 1013.44 1013.32 1013.36 1013.54 1013.80 1014.09 1014.38 1014.62 1014.81 1014.94 1015.04 1015.10 1015.15 1015.18 1015.19 1015.16 1015.08 1014.94 1014.74 1014.49 1014.21 1013.95 1013.73 1013.61 1013.60 1013.71 1013.92 1014.21 1014.53 1014.85 1015.12 1015.32 1015.44 1015.51 1015.54
1019.05 1018.30 1017.52 1016.69 1015.85 1015.05 1014.34 1013.79 1013.43 1013.28 1013.32 1013.52 1013.83 1014.18 1014.53 1014.82 1015.04 1015.20 1015.31 1015.37 1015.42 1015.46 1015.48 1015.46 1015.39 1015.26 1015.05 1014.77 1014.46 1014.15 1013.89 1013.72 1013.66 1013.74 1013.93 1014.20 1014.52 1014.83 1015.09 1015.29 1015.40 1015.44 1015.44
1019.49 1018.79 1018.03 1017.20 1016.32 1015.45 1014.67 1014.03 1013.60 1013.41 1013.43 1013.64 1013.98 1014.37 1014.75 1015.08 1015.34 1015.51 1015.62 1015.69 1015.74 1015.77 1015.79 1015.78 1015.72 1015.58 1015.37 1015.08 1014.75 1014.40 1014.10 1013.89 1013.80 1013.84 1014.00 1014.25 1014.55 1014.85 1015.10 1015.27 1015.36 1015.37 1015.33
1019.94 1019.31 1018.60 1017.79 1016.91 1016.00 1015.16 1014.45 1013.96 1013.71 1013.71 1013.90 1014.24 1014.64 1015.05 1015.40 1015.67 1015.85 1015.97 1016.03 1016.07 1016.10 1016.12 1016.11 1016.05 1015.92 1015.71 1015.41 1015.07 1014.71 1014.38 1014.14 1014.01 1014.01 1014.13 1014.35 1014.62 1014.88 1015.10 1015.24 1015.29 1015.27 1015.19
1020.33 1019.80 1019.18 1018.43 1017.57 1016.66 1015.78 1015.03 1014.48 1014.18 1014.13 1014.29 1014.61 1015.01 1015.41 1015.76 1016.03 1016.21 1016.31 1016.37 1016.40 1016.43 1016.45 1016.44 1016.39 1016.26 1016.06 1015.77 1015.43 1015.06 1014.71 1014.44 1014.28 1014.23 1014.31 1014.47 1014.69 1014.90 1015.07 1015.17 1015.18 1015.11 1015.00
1020.61 1020.21 1019.69 1019.03 1018.23 1017.35 1016.48 1015.71 1015.13 1014.78 1014.68 1014.79 1015.07 1015.42 1015.79 1016.12 1016.37 1016.53 1016.63 1016.68 1016.71 1016.73 1016.75 1016.75 1016.71 1016.60 1016.41 1016.14 1015.80 1015.43 1015.08 1014.78 1014.58 1014.48 1014.50 1014.60 1014.74 1014.89 1015.00 1015.04 1015.01 1014.90 1014.75
1020.78 1020.50 1020.11 1019.56 1018.85 1018.04 1017.20 1016.44 1015.84 1015.46 1015.30 1015.35 1015.56 1015.86 1016.17 1016.46 1016.67 1016.81 1016.89 1016.93 1016.95 1016.98 1017.00 1017.02 1016.99 1016.91 1016.74 1016.50 1016.18 1015.82 1015.46 1015.14 1014.90 1014.75 1014.69 1014.71 1014.78 1014.85 1014.89 1014.88 1014.80 1014.67 1014.49
1020.84 1020.69 1020.43 1020.00 1019.40 1018.67 1017.89 1017.16 1016.56 1016.14 1015.93 1015.91 1016.04 1016.26 1016.50 1016.72 1016.89 1017.00 1017.06 1017.09 1017.12 1017.15 1017.19 1017.23 1017.23 1017.17 1017.03 1016.82 1016.52 1016.18 1015.82 1015.49 1015.21 1015.00 1014.88 1014.82 1014.81 1014.80 1014.78 1014.71 1014.60 1014.44 1014.26
1020.84 1020.80 1020.65 1020.33 1019.84 1019.20 1018.50 1017.81 1017.21 1016.77 1016.51 1016.42 1016.46 1016.59 1016.75 1016.90 1017.01 1017.08 1017.12 1017.15 1017.18 1017.23 1017.30 1017.36 1017.38 1017.36 1017.26 1017.08 1016.81 1016.49 1016.15 1015.81 1015.50 1015.25 1015.07 1014.94 1014.84 1014.77 1014.68 1014.57 1014.43 1014.26 1014.07
1020.82 1020.86 1020.80 1020.57 1020.17 1019.62 1018.99 1018.34 1017.76 1017.30 1016.99 1016.83 1016.78 1016.81 1016.88 1016.96 1017.02 1017.05 1017.08 1017.11 1017.15 1017.22 1017.31 1017.39 1017.46 1017.47 1017.40 1017.26 1017.03 1016.74 1016.41 1016.08 1015.76 1015.48 1015.25 1015.06 1014.91 1014.77 1014.63 1014.48 1014.32 1014.15 1013.96
1020.84 1020.93 1020.92 1020.75 1020.42 1019.94 1019.36 1018.76 1018.19 1017.72 1017.36 1017.12 1016.99 1016.93 1016.92 1016.93 1016.93 1016.94 1016.95 1016.98 1017.04 1017.13 1017.24 1017.35 1017.44 1017.48 1017.45 1017.34 1017.16 1016.90 1016.61 1016.29 1015.98 1015.69 1015.42 1015.19 1014.99 1014.80 1014.62 1014.44 1014.25 1014.07 1013.89
1020.93 1021.02 1021.02 1020.88 1020.59 1020.15 1019.62 1019.05 1018.50 1018.02 1017.62 1017.33 1017.12 1016.98 1016.90 1016.84 1016.80 1016.78 1016.78 1016.82 1016.89 1016.99 1017.11 1017.24 1017.34 1017.40 1017.40 1017.33 1017.18 1016.97 1016.71 1016.42 1016.13 1015.84 1015.57 1015.31 1015.07 1014.84 1014.61 1014.40 1014.19 1014.00 1013.82
1021.08 1021.14 1021.13 1020.98 1020.69 1020.28 1019.78 1019.24 1018.70 1018.21 1017.80 1017.46 1017.19 1016.99 1016.84 1016.74 1016.66 1016.62 1016.61 1016.65 1016.72 1016.82 1016.95 1017.07 1017.18 1017.25 1017.26 1017.21 1017.09 1016.92 1016.70 1016.45 1016.19 1015.92 1015.64 1015.37 1015.10 1014.83 1014.58 1014.33 1014.09 1013.87 1013.68
1021.26 1021.28 1021.21 1021.03 1020.73 1020.33 1019.85 1019.33 1018.82 1018.34 1017.91 1017.55 1017.24 1017.00 1016.80 1016.66 1016.55 1016.49 1016.47 1016.50 1016.56 1016.65 1016.76 1016.87 1016.96 1017.02 1017.03 1016.99 1016.89 1016.75 1016.57 1016.36 1016.13 1015.88 1015.62 1015.34 1015.05 1014.75 1014.45 1014.16 1013.89 1013.64 1013.43
1021.43 1021.38 1021.24 1021.02 1020.70 1020.29 1019.83 1019.35 1018.86 1018.40 1017.98 1017.60 1017.28 1017.01 1016.78 1016.61 1016.48 1016.40 1016.36 1016.37 1016.41 1016.48 1016.56 1016.63 1016.69 1016.72 1016.71 1016.66 1016.57 1016.46 1016.31 1016.14 1015.94 1015.72 1015.47 1015.19 1014.88 1014.55 1014.22 1013.89 1013.57 1013.29 1013.05
1021.54 1021.40 1021.20 1020.92 1020.57 1020.16 1019.72 1019.27 1018.82 1018.39 1017.99 1017.62 1017.29 1017.01 1016.76 1016.57 1016.42 1016.31 1016.25 1016.24 1016.25 1016.28 1016.31 1016.34 1016.35 1016.33 1016.29 1016.23 1016.14 1016.04 1015.92 1015.78 1015.61 1015.41 1015.18 1014.90 1014.58 1014.23 1013.86 1013.49 1013.14 1012.82 1012.56
1021.55 1021.32 1021.04 1020.70 1020.32 1019.92 1019.50 1019.08 1018.67 1018.28 1017.91 1017.56 1017.24 1016.95 1016.69 1016.48 1016.31 1016.18 1016.09 1016.04 1016.02 1016.00 1015.99 1015.96 1015.92 1015.86 1015.79 1015.70 1015.61 1015.51 1015.41 1015.29 1015.15 1014.98 1014.76 1014.49 1014.16 1013.79 1013.40 1012.99 1012.61 1012.27 1011.99
1021.42 1021.11 1020.75 1020.36 1019.95 1019.55 1019.15 1018.77 1018.40 1018.04 1017.70 1017.37 1017.05 1016.76 1016.49 1016.26 1016.07 1015.92 1015.81 1015.73 1015.67 1015.61 1015.55 1015.48 1015.39 1015.29 1015.19 1015.08 1014.98 1014.89 1014.80 1014.71 1014.60 1014.45 1014.25 1013.98 1013.66 1013.28 1012.87 1012.45 1012.05 1011.70 1011.42
1021.18 1020.77 1020.34 1019.90 1019.47 1019.06 1018.68 1018.32 1017.98 1017.65 1017.33 1017.01 1016.70 1016.40 1016.12 1015.87 1015.66 1015.49 1015.36 1015.25 1015.16 1015.07 1014.98 1014.87 1014.75 1014.62 1014.50 1014.38 1014.28 1014.20 1014.13 1014.06 1013.97 1013.85 1013.66 1013.42 1013.11 1012.73 1012.33 1011.91 1011.51 1011.16 1010.89
1020.83 1020.34 1019.83 1019.34 1018.88 1018.47 1018.09 1017.74 1017.42 1017.11 1016.79 1016.47 1016.15 1015.84 1015.54 1015.28 1015.05 1014.86 1014.71 1014.59 1014.48 1014.38 1014.26 1014.14 1014.01 1013.88 1013.75 1013.63 1013.54 1013.47 1013.42 1013.37 1013.31 1013.21 1013.05 1012.83 1012.53 1012.18 1011.79 1011.39 1011.01 1010.68 1010.43
1020.40 1019.83 1019.26 1018.72 1018.23 1017.79 1017.41 1017.06 1016.74 1016.42 1016.10 1015.77 1015.43 1015.10 1014.79 1014.51 1014.27 1014.07 1013.91 1013.78 1013.67 1013.56 1013.45 1013.33 1013.20 1013.07 1012.95 1012.85 1012.77 1012.72 1012.69 1012.66 1012.62 1012.55 1012.42 1012.22 1011.96 1011.64 1011.28 1010.91 1010.56 1010.27 1010.06
1019.93 1019.28 1018.65 1018.06 1017.54 1017.08 1016.67 1016.31 1015.97 1015.64 1015.30 1014.96 1014.60 1014.26 1013.93 1013.63 1013.38 1013.18 1013.02 1012.89 1012.78 1012.68 1012.58 1012.48 1012.36 1012.25 1012.14 1012.05 1011.99 1011.96 1011.95 1011.94 1011.93 1011.88 1011.77 1011.61 1011.38 1011.10 1010.78 1010.45 1010.15 1009.91 1009.74
1019.41 1018.70 1018.02 1017.39 1016.83 1016.34 1015.91 1015.53 1015.17 1014.82 1014.46 1014.10 1013.73 1013.37 1013.03 1012.73 1012.48 1012.28 1012.12 1012.00 1011.90 1011.82 1011.73 1011.64 1011.54 1011.44 1011.35 1011.27 1011.23 1011.21 1011.21 1011.22 1011.22 1011.19 1011.12 1010.98 1010.79 1010.55 1010.28 1010.00 1009.75 1009.56 1009.43
1018.84 1018.08 1017.36 1016.70 1016.11 1015.60 1015.15 1014.74 1014.37 1014.00 1013.63 1013.26 1012.89 1012.52 1012.19 1011.90 1011.65 1011.46 1011.31 1011.19 1011.10 1011.02 1010.94 1010.85 1010.76 1010.67 1010.58 1010.52 1010.48 1010.47 1010.48 1010.50 1010.51 1010.50 1010.44 1010.34 1010.18 1009.98 1009.76 1009.53 1009.33 1009.19 1009.11
1018.20 1017.41 1016.66 1015.98 1015.37 1014.84 1014.38 1013.96 1013.57 1013.20 1012.83 1012.46 1012.10 1011.76 1011.44 1011.16 1010.93 1010.75 1010.61 1010.50 1010.41 1010.32 1010.24 1010.14 1010.04 1009.94 1009.86 1009.79 1009.75 1009.73 1009.74 1009.77 1009.79 1009.79 1009.75 1009.67 1009.55 1009.38 1009.20 1009.02 1008.88 1008.78 1008.75
Thickness
5569 5570 5572 5574 5576 5578 5579 5581 5583 5586 5588 5589 5590 5591 5592 5594 5595 5596 5598 5599 5600 5601 5602 5603 5603 5603 5604 5604 5604 5604 5604 5603 5604 5605 5605 5607 5608 5610 5610 5611 5612 5612 5612
5558 5560 5561 5563 5565 5566 5567 5569 5571 5574 5576 5578 5580 5581 5582 5584 5585 5586 5587 5589 5590 5591 5592 5593 5593 5594 5594 5594 5594 5594 5593 5593 5594 5594 5594 5595 5597 5600 5602 5602 5602 5602 5603
5547 5548 5550 5551 5552 5554 5555 5558 5560 5562 5565 5567 5569 5569 5571 5572 5573 5574 5576 5578 5580 5581 5583 5583 5584 5584 5584 5585 5584 5584 5584 5583 5582 5584 5584 5583 5586 5587 5590 5591 5592 5592 5592
5537 5538 5540 5541 5541 5542 5543 5546 5548 5551 5553 5555 5557 5558 5559 5560 5561 5562 5565 5567 5568 5570 5572 5573 5574 5574 5574 5575 5575 5575 5574 5574 5573 5572 5573 5574 5575 5574 5578 5580 5580 5581 5581
5527 5528 5529 5530 5531 5531 5532 5533 5536 5539 5541 5543 5544 5546 5548 5549 5549 5551 5553 5555 5557 5559 5560 5562 5563 5564 5564 5564 5564 5564 5564 5565 5565 5564 5563 5562 5562 5563 5564 5568 5569 5570 5571
5516 5517 5517 5518 5518 5519 5520 5521 5524 5526 5528 5530 5532 5534 5536 5537 5538 5540 5541 5543 5545 5547 5549 5551 5552 5553 5553 5554 5554 5554 5554 5554 5554 5554 5554 5553 5553 5553 5552 5554 5556 5558 5561
5504 5504 5505 5505 5506 5507 5508 5509 5512 5514 5516 5518 5520 5522 5524 5526 5527 5528 5530 5532 5534 5535 5537 5539 5540 5541 5542 5543 5543 5543 5543 5543 5544 5544 5544 5544 5544 5544 5543 5542 5543 5545 5548
5494 5494 5495 5494 5494 5495 5496 5497 5500 5502 5504 5506 5508 5510 5512 5513 5515 5517 5519 5520 5522 5524 5526 5528 5529 5530 5530 5531 5532 5532 5533 5533 5533 5533 5533 5533 5533 5532 5532 5531 5531 5532 5536
5485 5484 5484 5484 5483 5484 5485 5486 5488 5490 5491 5494 5496 5498 5499 5501 5502 5505 5507 5508 5510 5512 5515 5516 5518 5519 5519 5520 5520 5520 5521 5522 5522 5522 5522 5521 5521 5521 5521 5520 5520 5520 5523
5474 5473 5472 5471 5471 5472 5474 5475 5477 5478 5479 5481 5483 5485 5487 5489 5491 5493 5495 5496 5498 5500 5502 5504 5506 5507 5508 5508 5509 5509 5510 5510 5511 5511 5510 5511 5511 5510 5509 5508 5508 5509 5510
5461 5460 5459 5459 5459 5459 5461 5463 5465 5466 5468 5469 5471 5473 5475 5476 5479 5481 5483 5484 5486 5487 5490 5492 5494 5495 5496 5496 5496 5497 5498 5499 5499 5498 5499 5499 5499 5499 5498 5497 5497 5497 5497
5450 5449 5447 5447 5447 5448 5449 5451 5452 5454 5456 5458 5459 5461 5462 5464 5466 5468 5470 5472 5473 5475 5476 5479 5480 5481 5483 5483 5484 5485 5486 5486 5487 5487 5487 5487 5488 5488 5487 5487 5487 5487 5487
5440 5439 5437 5437 5437 5437 5438 5439 5440 5442 5444 5446 5447 5449 5450 5452 5453 5455 5457 5459 5461 5462 5464 5465 5467 5468 5469 5470 5471 5472 5473 5474 5475 5475 5475 5476 5476 5477 5477 5477 5476 5476 5476
5430 5429 5428 5427 5427 5427 5427 5428 5429 5431 5433 5434 5436 5437 5438 5440 5441 5443 5445 5446 5448 5449 5451 5452 5453 5454 5456 5457 5458 5458 5459 5461 5462 5462 5463 5464 5464 5465 5465 5466 5466 5465 5465
5422 5421 5420 5418 5417 5417 5417 5418 5419 5420 5422 5423 5424 5426 5427 5428 5429 5431 5432 5433 5435 5436 5438 5439 5440 5441 5442 5443 5444 5445 5446 5447 5449 5449 5450 5451 5452 5454 5454 5455 5455 5454 5454
5413 5412 5411 5410 5409 5408 5408 5408 5409 5410 5411 5412 5413 5415 5416 5417 5417 5418 5419 5421 5422 5423 5424 5425 5427 5428 5429 5431 5432 5433 5433 5434 5436 5437 5439 5440 5441 5443 5444 5444 5445 5444 5443
5405 5404 5403 5401 5400 5399 5399 5399 5399 5400 5400 5401 5402 5404 5404 5405 5405 5407 5407 5408 5409 5411 5412 5413 5414 5415 5416 5418 5419 5420 5420 5422 5423 5424 5426 5428 5430 5431 5431 5432 5433 5433 5434
5397 5396 5394 5392 5391 5390 5390 5390 5390 5390 5390 5391 5392 5393 5393 5394 5394 5395 5396 5397 5397 5398 5399 5400 5401 5402 5404 5406 5407 5408 5408 5410 5411 5413 5414 5416 5418 5419 5420 5420 5421 5421 5422
5388 5387 5385 5383 5382 5381 5381 5381 5381 5381 5381 5382 5382 5383 5383 5383 5384 5384 5384 5385 5386 5387 5387 5388 5389 5390 5392 5394 5395 5396 5396 5398 5400 5402 5403 5405 5407 5409 5410 5410 5410 5411 5411
5380 5378 5377 5375 5374 5373 5373 5372 5372 5372 5372 5373 5373 5373 5373 5374 5374 5374 5374 5374 5375 5375 5376 5377 5377 5378 5380 5383 5385 5385 5386 5388 5390 5392 5393 5395 5397 5399 5399 5398 5399 5400 5401
5371 5370 5368 5367 5366 5366 5365 5364 5364 5364 5365 5365 5365 5365 5364 5364 5364 5365 5365 5364 5364 5364 5364 5365 5366 5367 5369 5372 5374 5375 5375 5377 5379 5381 5383 5385 5387 5389 5389 5389 5389 5390 5391
5362 5361 5360 5359 5358 5358 5357 5357 5357 5358 5357 5357 5357 5356 5356 5356 5356 5356 5355 5355 5354 5354 5354 5355 5356 5357 5359 5361 5363 5365 5366 5367 5368 5370 5372 5375 5377 5378 5379 5379 5380 5380 5380
5352 5352 5351 5351 5350 5350 5350 5349 5350 5350 5350 5349 5349 5349 5349 5348 5348 5347 5346 5346 5345 5345 5345 5346 5347 5348 5349 5350 5353 5355 5357 5358 5359 5360 5363 5365 5366 5368 5368 5369 5369 5369 5369
5344 5344 5343 5343 5343 5342 5342 5342 5343 5342 5342 5341 5341 5342 5341 5341 5340 5340 5339 5338 5337 5336 5337 5337 5337 5338 5339 5341 5343 5344 5346 5348 5349 5350 5352 5354 5356 5356 5357 5357 5358 5358 5358
5336 5336 5335 5335 5335 5335 5334 5335 5335 5334 5334 5334 5334 5334 5334 5333 5333 5332 5331 5331 5330 5329 5329 5329 5329 5329 5331 5334 5335 5336 5338 5339 5340 5341 5342 5343 5344 5345 5346 5347 5347 5348 5348
5329 5328 5328 5328 5328 5327 5327 5327 5327 5327 5327 5327 5327 5326 5326 5325 5325 5324 5324 5324 5323 5323 5323 5323 5323 5324 5325 5327 5328 5329 5330 5331 5331 5331 5332 5333 5334 5335 5336 5337 5338 5339 5339